This is the latest recevied weather packets stored in our database for station/object KO4DYK. If no packets are shown the sender has not sent any weather packets the latest 10 day(s).
| Time | Temp. | Humidity | Pressure | Rain* | Wind** | Luminosity | Snow |
|---|---|---|---|---|---|---|---|
| 1777861322 | 14.44° C | 66% | 1020.3 hPa | 0 mm | - | 0 W/m² | - |
| 1777861020 | 14.44° C | 67% | 1020.3 hPa | 0 mm | - | 0 W/m² | - |
| 1777860716 | 14.44° C | 67% | 1020.1 hPa | 0 mm | - | 0 W/m² | - |
| 1777860413 | 14.44° C | 69% | 1019.9 hPa | 0 mm | - | 0 W/m² | - |
| 1777860109 | 13.89° C | 68% | 1020.1 hPa | 0 mm | - | 0 W/m² | - |
| 1777859806 | 14.44° C | 68% | 1020 hPa | 0 mm | - | 0 W/m² | - |
| 1777859503 | 14.44° C | 68% | 1020 hPa | 0 mm | - | 0 W/m² | - |
| 1777859198 | 14.44° C | 67% | 1019.9 hPa | 0 mm | - | 0 W/m² | - |
| 1777858896 | 14.44° C | 67% | 1020 hPa | 0 mm | - | 0 W/m² | - |
| 1777858593 | 15° C | 66% | 1019.8 hPa | 0 mm | - | 0 W/m² | - |
| 1777858290 | 15° C | 65% | 1019.9 hPa | 0 mm | - | 0 W/m² | - |
| 1777857987 | 15° C | 64% | 1019.8 hPa | 0 mm | - | 0 W/m² | - |
| 1777857685 | 15° C | 62% | 1020 hPa | 0 mm | - | 0 W/m² | - |
| 1777857382 | 15.56° C | 61% | 1020 hPa | 0 mm | - | 0 W/m² | - |
| 1777857078 | 15.56° C | 61% | 1019.9 hPa | 0 mm | - | 0 W/m² | - |
| 1777856774 | 16.11° C | 60% | 1020 hPa | 0 mm | - | 0 W/m² | - |
| 1777856470 | 16.67° C | 58% | 1020 hPa | 0 mm | - | 0 W/m² | - |
| 1777856167 | 16.67° C | 56% | 1019.9 hPa | 0 mm | - | 0 W/m² | - |
| 1777855864 | 17.22° C | 54% | 1020.1 hPa | 0 mm | - | 0 W/m² | - |
| 1777855562 | 17.78° C | 52% | 1020.1 hPa | 0 mm | - | 1 W/m² | - |
| 1777855259 | 18.33° C | 51% | 1020 hPa | 0 mm | - | 2 W/m² | - |
| 1777854955 | 18.33° C | 51% | 1020 hPa | 0 mm | - | 5 W/m² | - |
| 1777854652 | 18.89° C | 50% | 1019.9 hPa | 0 mm | - | 7 W/m² | - |
| 1777854349 | 19.44° C | 48% | 1019.8 hPa | 0 mm | - | 10 W/m² | - |
| 1777854047 | 19.44° C | 48% | 1019.8 hPa | 0 mm | - | 13 W/m² | - |
* Rain latest hour (hover to see other rain measurements)
** Current wind speed in m/s (hover to see current wind gust speed)